Location: Kellogg
(38.0159°N, 90.0546°W)
Time: 17:57:26
(UTC+00:00)

S-56A Canister/Altair - Pass Details

Date: 19 September 2024
Orbit: 636 x 2487 km, 38.9° (Epoch: 04 October)

Event Time Altitude Azimuth Distance (km) Brightness Sun altitude
Rises 03:43:49 0° 284° (WNW) 3,699 11.7 -40.5°
Reaches altitude 10° 03:46:05 10° 281° (WNW) 2,934 11.0 -40.9°
Enters shadow 03:49:53 37° 270° (W) 1,860 9.6 -41.4°
Maximum altitude 03:53:19 67° 201° (SSW) 1,540 - -41.8°
Drops below altitude 10° 04:04:26 10° 122° (ESE) 4,381 - -43.3°
Sets 04:08:33 0° 120° (ESE) 5,627 - -43.8°
